Find Kosmos-2188

NORAD ID: 21977 Int'l Des: 1992-030 Owner: VVSR Country: RU operational
LEOCIRCULAR

リアルタイム位置

3D地球を読み込み中...

Kosmos-2188について

説明を読み込み中...

次回通過

Passes for default location (London). Set your location on the main map for personalized predictions.

高度履歴

Loading altitude history...

軌道要素

1 21977U 92030B 26119.43075480 .00000010 00000-0 15756-3 0 9998
2 21977 73.9998 118.6181 0058238 341.4870 172.6248 12.57552994556344
Epoch: Apr 29, 2026 • Age: 13 hours

現在のステータス

高度 1443.7 km
速度 7.15 km/s
衛星直下点 65.20°N, 50.73°W
打ち上げ日 Jun 3, 1992
運用期間 33.9 years
タイプ other

技術仕様

分類 Payload
質量 60.00 kg
乾燥質量 60.00 kg
総質量 60.00 kg
長さ 0.80 m
直径 0.80 m
スパン 0.80 m
形状 Poly
製造者 NPOPM
バスタイプ Strela-1 11F625
フェーズステータス In Orbit
所有者/国 VVSR/RU

Most Searched